This demonstration page uses our WeatherBlox Daily Observations layout. Learn more.

40.92945, -100.16068

Hourly Observations for December 20, 2015

Temp ( °F °C ) Dew Point ( °F °C ) Humidity (%) Winds ( mph kmh ) Pressure ( in mb ) Visibility ( mi km ) Precip ( " mm )
12:15 am 00:15 Clear 34 1 31 -0.6 89 89 SE 3 6 29.91 1013 10 16.0934 N/A
12:35 am 00:35 Clear 33 0.5 30 -0.9 90 90 Calm 29.88 1012 10 16.0934 N/A
12:55 am 00:55 Clear 33 0.8 31 -0.7 90 90 S 3 6 29.88 1012 10 16.0934 N/A
1:15 am 01:15 Clear 32 -0.1 29 -1.6 90 90 S 5 7 29.88 1012 10 16.0934 N/A
1:35 am 01:35 Clear 32 0 30 -1.2 92 92 Calm 29.85 1011 10 16.0934 N/A
1:55 am 01:55 Clear 31 -0.6 29 -1.8 92 92 Calm 29.85 1011 10 16.0934 N/A
2:15 am 02:15 Clear 30 -1.1 28 -2.3 92 92 Calm 29.85 1011 10 16.0934 N/A
2:35 am 02:35 Clear 30 -1.1 28 -2.1 93 93 ENE 3 6 29.83 1010 10 16.0934 N/A
2:55 am 02:55 Clear 30 -1 29 -1.9 94 94 Calm 29.83 1010 10 16.0934 N/A
3:15 am 03:15 Clear 30 -1 29 -1.9 94 94 Calm 29.83 1010 10 16.0934 N/A
3:35 am 03:35 Clear 30 -1.2 28 -2.1 94 94 Calm 29.83 1010 10 16.0934 N/A
3:55 am 03:55 Clear 29 -1.4 28 -2.2 94 94 Calm 29.83 1010 10 16.0934 N/A
4:15 am 04:15 Clear 28 -2.2 27 -3 94 94 Calm 29.85 1011 7 11.26538 N/A
4:35 am 04:35 Clear 28 -2.1 27 -2.8 95 95 NNE 7 11 29.8 1009 7 11.26538 N/A
4:55 am 04:55 Clear 27 -2.9 26 -3.5 96 96 N 5 7 29.83 1010 7 11.26538 N/A
5:15 am 05:15 Clear 27 -3 25 -3.7 95 95 SW 3 6 29.85 1011 7 11.26538 N/A
5:35 am 05:35 Clear 26 -3.2 25 -3.8 96 96 S 5 7 29.85 1011 7 11.26538 N/A
5:55 am 05:55 Clear 26 -3.3 25 -4 95 95 Calm 29.83 1010 7 11.26538 0 0
6:15 am 06:15 Clear 26 -3.3 25 -4 95 95 Calm 29.83 1010 7 11.26538 N/A
6:35 am 06:35 Clear 27 -2.9 26 -3.5 96 96 Calm 29.83 1010 10 16.0934 N/A
6:55 am 06:55 Clear 27 -2.7 26 -3.4 95 95 WSW 3 6 29.85 1011 10 16.0934 N/A
7:15 am 07:15 Clear 27 -2.7 26 -3.4 95 95 NW 6 9 29.83 1010 10 16.0934 N/A
7:35 am 07:35 Clear 27 -2.7 26 -3.5 94 94 N 3 6 29.83 1010 7 11.26538 N/A
7:55 am 07:55 Clear 26 -3.2 25 -4 94 94 Calm 29.83 1010 7 11.26538 N/A
8:15 am 08:15 Sunny 26 -3.5 25 -4 96 96 WNW 7 11 29.83 1010 7 11.26538 N/A
8:35 am 08:35 Sunny 27 -2.9 26 -3.5 96 96 NW 3 6 29.83 1010 7 11.26538 N/A
8:55 am 08:55 Sunny 28 -2.1 27 -2.8 95 95 Calm 29.8 1009 7 11.26538 N/A
9:15 am 09:15 Sunny 29 -1.8 28 -2.5 95 95 Calm 29.8 1009 7 11.26538 N/A
9:35 am 09:35 Sunny 30 -1.3 28 -2 95 95 NW 6 9 29.8 1009 7 11.26538 N/A
9:55 am 09:55 Sunny 31 -0.5 30 -1.1 96 96 Calm 29.8 1009 7 11.26538 N/A
10:15 am 10:15 Sunny 32 -0.2 30 -1 94 94 Calm 29.8 1009 7 11.26538 N/A
10:35 am 10:35 Sunny 32 0.1 31 -0.5 96 96 NNW 9 15 29.8 1009 10 16.0934 N/A
10:55 am 10:55 Sunny 33 0.7 32 -0.1 94 94 SE 3 6 29.77 1008 10 16.0934 N/A
11:15 am 11:15 Sunny 34 1.1 32 0 92 92 Calm 29.77 1008 10 16.0934 N/A
11:35 am 11:35 Sunny 35 1.6 32 0 89 89 WNW 6 9 29.74 1007 10 16.0934 N/A
11:55 am 11:55 Sunny 37 2.5 33 0.5 87 87 NW 3 6 29.74 1007 10 16.0934 N/A
12:15 pm 12:15 Sunny 37 3 33 0.6 84 84 NW 9 15 29.77 1008 10 16.0934 N/A
12:35 pm 12:35 Sunny 38 3.4 34 0.9 84 84 NNW 8 13 29.74 1007 10 16.0934 N/A
12:55 pm 12:55 Sunny 39 4 34 1.1 82 82 N 3 6 29.71 1006 10 16.0934 N/A
1:15 pm 13:15 Sunny 40 4.4 34 1.2 80 80 N 3 6 29.71 1006 10 16.0934 N/A
1:35 pm 13:35 Sunny 40 4.6 34 1.3 79 79 N 7 11 29.71 1006 10 16.0934 N/A
1:55 pm 13:55 Sunny 42 5.4 33 0.8 73 73 NNE 3 6 29.71 1006 10 16.0934 N/A
2:15 pm 14:15 Sunny 42 5.3 33 0.4 71 71 NNE 5 7 29.71 1006 10 16.0934 N/A
2:35 pm 14:35 Partly Cloudy 41 4.8 32 0.2 72 72 N 6 9 29.71 1006 10 16.0934 N/A
2:55 pm 14:55 Mostly Cloudy 41 4.9 33 0.5 73 73 NNW 5 7 29.71 1006 10 16.0934 N/A
3:15 pm 15:15 Partly Cloudy 41 4.9 33 0.6 74 74 N 10 17 29.71 1006 10 16.0934 N/A
3:35 pm 15:35 Sunny 40 4.7 33 0.6 75 75 N 10 17 29.71 1006 10 16.0934 N/A
3:55 pm 15:55 Sunny 41 4.8 32 0.2 72 72 N 10 17 29.74 1007 10 16.0934 N/A
4:15 pm 16:15 Sunny 39 3.9 32 0.1 77 77 N 10 17 29.74 1007 10 16.0934 N/A
4:35 pm 16:35 Sunny 38 3.2 32 -0.2 79 79 N 13 20 29.77 1008 10 16.0934 N/A
4:55 pm 16:55 Sunny 37 2.5 30 -1 78 78 N 13 20 29.77 1008 10 16.0934 N/A
5:15 pm 17:15 Clear 36 2.3 30 -0.9 80 80 N 14 22 29.77 1008 10 16.0934 N/A
5:35 pm 17:35 Clear 36 2 29 -1.5 78 78 N 15 24 29.8 1009 10 16.0934 N/A
5:55 pm 17:55 Clear 35 1.7 30 -1.3 81 81 NNW 12 19 29.8 1009 10 16.0934 N/A
6:15 pm 18:15 Clear 35 1.7 29 -1.5 80 80 NNW 12 19 29.83 1010 10 16.0934 N/A
6:35 pm 18:35 Clear 35 1.5 29 -1.8 79 79 N 14 22 29.83 1010 10 16.0934 N/A
6:55 pm 18:55 Clear 34 1.2 29 -1.8 81 81 NNW 16 26 29.85 1011 10 16.0934 N/A
7:15 pm 19:15 Partly Cloudy 34 1 28 -2.3 79 79 N 9 15 29.85 1011 10 16.0934 N/A
7:35 pm 19:35 Mostly Cloudy 33 0.7 28 -2 82 82 N 10 17 29.85 1011 10 16.0934 N/A
7:55 pm 19:55 Cloudy 33 0.6 28 -2.2 82 82 N 9 15 29.85 1011 10 16.0934 N/A
8:15 pm 20:15 Cloudy 33 0.5 28 -2.3 82 82 N 9 15 29.85 1011 10 16.0934 N/A
8:35 pm 20:35 Cloudy 32 0.2 28 -2.5 82 82 N 10 17 29.85 1011 10 16.0934 N/A
8:55 pm 20:55 Mostly Cloudy 32 0.1 28 -2.4 83 83 NNW 10 17 29.85 1011 10 16.0934 N/A
9:15 pm 21:15 Partly Cloudy 32 0 27 -2.7 82 82 NNW 13 20 29.88 1012 10 16.0934 N/A
9:35 pm 21:35 Mostly Cloudy 32 0 27 -3 80 80 N 13 20 29.85 1011 10 16.0934 N/A
9:55 pm 21:55 Cloudy 32 0 27 -2.7 82 82 NNW 13 20 29.88 1012 10 16.0934 N/A
10:15 pm 22:15 Cloudy 31 -0.3 27 -3 82 82 NNW 12 19 29.88 1012 10 16.0934 N/A
10:35 pm 22:35 Cloudy 31 -0.5 27 -2.9 84 84 NNW 14 22 29.88 1012 10 16.0934 N/A
10:55 pm 22:55 Cloudy 31 -0.5 27 -2.7 85 85 NNW 13 20 29.88 1012 10 16.0934 N/A
11:15 pm 23:15 Cloudy 31 -0.5 28 -2.5 87 87 NNW 14 22 29.88 1012 10 16.0934 N/A
11:35 pm 23:35 Cloudy 31 -0.3 28 -2.2 87 87 NNW 12 19 29.88 1012 10 16.0934 N/A
11:55 pm 23:55 Cloudy 31 -0.3 28 -2.1 88 88 NNW 10 17 29.88 1012 10 16.0934 N/A

Powered by AerisWeather